This demonstration page uses our WeatherBlox Daily Observations layout. Learn more.

Left ArrowRight Arrow

34.74481, -87.66753

Hourly Observations for May 8, 2017

Temp ( °F °C ) Dew Point ( °F °C ) Humidity (%) Winds ( mph kmh ) Pressure ( in mb ) Visibility ( mi km ) Precip ( " mm )
12:53 am 00:53 Clear 50 10 47 8.3 89 89 Calm 30.05 1018 10 16 0.00 0.00
1:53 am 01:53 Clear 50 10 47 8.3 89 89 Calm 30.05 1018 10 16 0.00 0.00
2:53 am 02:53 Clear 50 10 47 8.3 89 89 Calm 30.05 1018 10 16 0.00 0.00
3:53 am 03:53 Clear 48 8.9 45 7.2 89 89 Calm 30.07 1018 7 11 0.00 0.00
4:09 am 04:09 Clear with Mist and Fog 48 8.9 45 7.2 89 89 Calm 30.09 1019 2 3 0.00 0.00
4:16 am 04:16 Clear with Mist and Fog 48 8.9 46 7.8 93 93 Calm 30.09 1019 3 5 0.00 0.00
4:53 am 04:53 Clear with Mist and Fog 47 8.3 44 6.7 90 90 Calm 30.08 1019 3 4 0.00 0.00
5:01 am 05:01 Clear with Mist and Fog 47 8.3 45 7.2 93 93 Calm 30.09 1019 4 6 0.00 0.00
5:53 am 05:53 Sunny 48 8.9 45 7.2 89 89 Calm 30.09 1019 8 13 0.00 0.00
6:53 am 06:53 Sunny 51 10.6 48 8.9 89 89 Calm 30.11 1020 10 16 0.00 0.00
7:53 am 07:53 Sunny 56 13.3 51 10.6 84 84 Calm 30.13 1020 10 16 0.00 0.00
8:53 am 08:53 Sunny 63 17.2 53 11.7 70 70 Calm 30.14 1021 10 16 0.00 0.00
9:53 am 09:53 Sunny 69 20.6 49 9.4 49 49 S 3 6 30.14 1021 10 16 0.00 0.00
10:53 am 10:53 Sunny 73 22.8 46 7.8 38 38 Calm 30.14 1021 10 16 0.00 0.00
11:53 am 11:53 Sunny 76 24.4 47 8.3 36 36 VRB 3 6 30.14 1021 10 16 0.00 0.00
12:53 pm 12:53 Sunny 78 25.6 48 8.9 35 35 Calm 30.12 1020 10 16 0.00 0.00
1:53 pm 13:53 Sunny 79 26.1 49 9.4 35 35 Calm 30.10 1019 10 16 0.00 0.00
2:53 pm 14:53 Sunny 81 27.2 51 10.6 35 35 Calm 30.08 1019 10 16 0.00 0.00
3:53 pm 15:53 Sunny 80 26.7 49 9.4 34 34 Calm 30.06 1018 10 16 0.00 0.00
4:53 pm 16:53 Sunny 80 26.7 55 12.8 42 42 NW 3 6 30.05 1018 10 16 0.00 0.00
5:53 pm 17:53 Sunny 78 25.6 54 12.2 43 43 WSW 7 11 30.04 1017 10 16 0.00 0.00
6:53 pm 18:53 Sunny 77 25 54 12.2 45 45 NW 3 6 30.04 1017 10 16 0.00 0.00
7:53 pm 19:53 Clear 71 21.7 56 13.3 59 59 Calm 30.04 1017 10 16 0.00 0.00
8:53 pm 20:53 Clear 66 18.9 56 13.3 70 70 Calm 30.04 1017 10 16 0.00 0.00
9:53 pm 21:53 Clear 63 17.2 57 13.9 81 81 Calm 30.05 1018 10 16 0.00 0.00
10:53 pm 22:53 Clear 63 17.2 58 14.4 84 84 Calm 30.05 1018 10 16 0.00 0.00
11:53 pm 23:53 Clear 59 15 56 13.3 90 90 Calm 30.05 1018 10 16 0.00 0.00

Powered by AerisWeather